{"data":{"norad_id":63051,"epoch":"2026-09-21T21:07:01.391808Z","epoch_age_seconds":46194,"freshness":"FRESH","line1":"1 63051U 25034Y   26264.87987722  .00020199  00000+0  60752-3 0  9992","line2":"2 63051  53.1595  75.4296 0000855  70.4673 289.6422 15.34390656 89005","mean_motion":15.34390656,"eccentricity":8.55e-5,"inclination_deg":53.1595,"raan_deg":75.4296,"arg_perigee_deg":70.4673,"mean_anomaly_deg":289.6422,"bstar":0.00060752,"rev_number":8900,"period_min":93.848329587325,"perigee_km":462.14611847012,"apogee_km":463.31590690029,"semimajor_km":6840.8680126852,"source":"CELESTRAK","updated_at":"2026-09-22T09:00:49.748786Z"}}